User: anonymous   Login
Location: Unspecified
(0.0000°N, 0.0000°E)
Time: 01:05:18
(UTC+00:00)
Language:

APRIZESAT 5 - Orbit

View from above orbital plane
View from above orbital plane
View from above satellite
View from above satellite

Ground track
Ground track

The orbit data is extracted from the following two-line orbital elements,

1 37792U 11044E   17293.45650968  .00000102  00000-0  23068-4 0  9999
2 37792  98.3560  80.4232 0058660  13.7406 346.5382 14.75175571332334
Epoch (UTC): 20 October 2017 10:57:22
Eccentricity: 0.0058660
inclination: 98.3560°
perigee height: 603 km
apogee height: 686 km
right ascension of ascending node: 80.4232°
argument of perigee: 13.7406°
revolutions per day: 14.75175571
mean anomaly at epoch: 346.5382°
orbit number at epoch: 33233

The dashed part of the orbit path shows where the satellite is in the earth's shadow,  

DLR